Regional Weather Roundup
Issued by NWS

Home | Current Version | Previous Version | Text Only | Print | Product List | Glossary On
Versions: 1 2 3 4 5 6 7 8 9 10 11 12 13 14 15 16 17 18 19 20 21 22 23 24 25 26 27 28 29 30 31 32 33 34 35 36 37 38 39 40 41 42 43 44 45 46 47 48 49 50
000
ASUS42 KTBW 220010
RWRFL
FLORIDA REGIONAL WEATHER ROUNDUP
NATIONAL WEATHER SERVICE TAMPA BAY RUSKIN FL
800 PM EDT THU AUG 21 2014

NOTE: "FAIR" INDICATES FEW OR NO CLOUDS BELOW 12,000 FEET WITH NO
SIGNIFICANT WEATHER AND/OR OBSTRUCTIONS TO VISIBILITY.


FLZ001>010-012>015-112-114-115-220100-
PANHANDLE FLORIDA

CITY           SKY/WX    TMP DP  RH WIND       PRES   REMARKS
PENSACOLA      CLEAR     86  73  65 SW8       30.08R
PENSACOLA NAS  PTCLDY    85  74  69 W5        30.08R
MILTON NAS     PTCLDY    88  76  67 SW7       30.08R HX  99
CRESTVIEW      PTCLDY    86  77  74 CALM      30.09R HX  97
DUKE FIELD     PTCLDY    87  79  76 SW8       30.08R HX 102
VALPARAISO     MOCLDY    87  76  70 W6        30.08R HX  98
TRI COUNTY     HVY RAIN  87  82  85 CALM      30.06F HX 106
PANAMA CITY    FAIR      84  79  85 SW5       30.06S HX  96
TYNDALL AFB    CLEAR     85  77  75 W8        30.08S HX  96
APALACHICOLA   CLEAR     88  74  63 W6        30.07R HX  96

STATION/POSITION SKY/WX   TEMP    WIND        PRES    WAVE   SWELL
                          AIR SEA DIR/SP/G            HT/PER HT/PER
                          (F)     (DEG/KT/KT) (MB)    (FT/S) (FT/S)
30.1N   87.6W              86 86  240/ 12/ 12 1019.0R   1/ 5
PANAMA CITY BEAC           85 85  270/  9/ 10 1018.3F
CAPE SAN BLAS    NOT AVBL
TOWER C                    84     300/ 11/ 11 1018.4R
28.5N   84.5W              85 87  330/  6/  8 1018.6R   1/ 9

$$
FLZ011-016>038-118-127-128-134-139-239-220100-
NORTH FLORIDA

CITY           SKY/WX    TMP DP  RH WIND       PRES   REMARKS
MARIANNA       MOCLDY    84  74  71 NE5       30.07R
TALLAHASSEE    CLOUDY    86  73  65 S3        30.08R
CROSS CITY       N/A     85  76  74 NW3       30.08R
GAINESVILLE    CLOUDY    79  70  74 SW13      30.09R
MAYPORT NAS    PTCLDY    86  73  65 S8        30.06R
JACKSONVILLE   MOCLDY    87  76  69 S8        30.04R HX  97
JAX NAS        CLOUDY    88  72  58 S10       30.06R
JAX CRAIG      MOCLDY    86  75  69 S7        30.06R HX  95
JAX CECIL      PTCLDY    81  72  74 S5        30.07R
FERNANDINA BEA FAIR      86  73  66 S3        30.05R
ST AUGUSTINE   CLOUDY    86  77  74 SW3       30.08R HX  97

STATION/POSITION SKY/WX   TEMP    WIND        PRES    WAVE   SWELL
                          AIR SEA DIR/SP/G            HT/PER HT/PER
                          (F)     (DEG/KT/KT) (MB)    (FT/S) (FT/S)
SHELL POINT                90     240/  7/  9   N/A
KEATON BEACH               78     320/  9/ 12 1018.9R
CEDAR KEY                  88     300/  5/  7 1018.1F
FERNANDINA                 87 83  170/  6/  8 1017.2R
30.7N   81.3W                 84                N/A     1/ 9
MAYPORT                    87 82  190/  5/  6   N/A
31.4N   80.9W              85 86  170/ 10/ 10 1017.0R   1/10
ST AUGUSTINE               82     240/  3/  4 1018.9R

$$
FLZ040-043>046-052-053-057-058-063-144-220100-
INTERIOR CENTRAL FLORIDA

CITY           SKY/WX    TMP DP  RH WIND       PRES   REMARKS
OCALA          CLOUDY    75  72  88 S6        30.12R THUNDER
LEESBURG       MOCLDY    86  71  60 N3        30.11R
SANFORD        LGT RAIN  74  70  87 W12       30.11R FOG
ORLANDO EXEC   CLOUDY    84  74  71 N6        30.10R
ORLANDO INTL   CLOUDY    86  71  60 E3        30.10R THUNDER
KISSIMMEE      TSTM      84  73  70 MISG      30.09R VSB 1
WINTER HAVEN   PTCLDY    87  68  52 SW8       30.09R
LAKELAND       MOCLDY    81  72  74 NW3       30.12R
BARTOW         FAIR      82  72  69 SW12      30.10R
OKEECHOBEE     PTCLDY    82  75  78 MISG      30.08R

$$
FLZ041-047-054-059-064-141-147-220100-
EAST CENTRAL FLORIDA

CITY           SKY/WX    TMP DP  RH WIND       PRES   REMARKS
DAYTONA BEACH  MOCLDY    80  68  66 W9        30.10R THUNDER
DELAND         CLOUDY    75  70  83 S17G25    30.13R
NEW SMYRNA BEA PTCLDY    84  73  70 W5        30.09R
JFK SPACE CTR  CLEAR     84 N/A N/A S3        30.08R
TITUSVILLE     PTCLDY    82  75  78 S6        30.09R
CAPE CANAVERAL CLEAR     82  76  82 S5        30.08R
PATRICK AFB    PTCLDY    84  77  78 S9        30.09R
MELBOURNE      PTCLDY    85  73  67 SE8       30.09R
VERO BEACH     CLEAR     82  73  74 SE8       30.08R
FT PIERCE      CLEAR     85  74  69 SE6       30.08R

STATION/POSITION SKY/WX   TEMP    WIND        PRES    WAVE   SWELL
                          AIR SEA DIR/SP/G            HT/PER HT/PER
                          (F)     (DEG/KT/KT) (MB)    (FT/S) (FT/S)
28.5N   80.2W              86 86  160/  6/  8 1018.6R
28.9N   78.5W              85 86  200/  4/  6 1018.9R
TRIDENT PIER               83 83  140/  3/  5 1018.2R
28.4N   80.5W                 82                N/A     1/ 8
27.6N   80.2W                 83                N/A     1/12

$$
FLZ050-056-061-142-242-148-248-149-249-151-251-155-255-
160-260-220100-
WEST CENTRAL FLORIDA

CITY           SKY/WX    TMP DP  RH WIND       PRES   REMARKS
CRYSTAL RIVER  MOCLDY    79  68  69 CALM      30.12R THUNDER
INVERNESS      TSTM      73  63  68 CALM      30.10R
BROOKSVILLE    PTCLDY    87  76  69 N10       30.11R HX  97
ZEPHYRHILLS    FAIR      88  72  58 NW5       30.10R
CLEARWATER     CLOUDY    82  72  71 SE17G28   30.11R
TAMPA INTL     PTCLDY    84  67  56 S12G21    30.11R
TAMPA EXEC     CLOUDY    86  68  54 S3        30.11R
MACDILL AFB    LGT RAIN  79  74  83 S15       30.11R
ST PETERSBURG  CLOUDY    80  73  79 SE18      30.10R
SARASOTA       LGT RAIN  81  71  71 E7        30.08F
VENICE           N/A    N/A N/A N/A MISG        N/A

STATION/POSITION SKY/WX   TEMP    WIND        PRES    WAVE   SWELL
                          AIR SEA DIR/SP/G            HT/PER HT/PER
                          (F)     (DEG/KT/KT) (MB)    (FT/S) (FT/S)
CEDAR KEY                  88     300/  5/  7 1018.1F
28.5N   84.5W              85 87  330/  6/  8 1018.6R   1/ 9
27.3N   84.3W                 88                N/A     1/ 7
CLEARWATER BEACH           87 91  340/  8/ 10 1018.7R
MIDDLE TAMPA BAY           78     130/ 14/ 17 1020.0R
VENICE                     78 89   20/ 10/ 13 1018.4R

$$
FLZ066-069-070-075>078-162-262-165-265-220100-
SOUTHWEST FLORIDA AND KEYS

CITY           SKY/WX    TMP DP  RH WIND       PRES   REMARKS
PUNTA GORDA    MOCLDY    83  74  74 CALM      30.09R
FT MYERS       PTCLDY    83  73  72 NW5       30.06R
SOUTHWEST INTL PTCLDY    82  71  69 NW3       30.07R
NAPLES         PTCLDY    82  76  81 MISG      30.06R
MARCO ISLAND   CLOUDY    79  73  83 CALM      30.06R
MARATHON       PTCLDY    86  77  74 E9        30.05R HX  97
KEY WEST NAS   MOCLDY    86  75  69 E7        30.04R HX  95
KEY WEST INTL  CLEAR     87  75  67 E9        30.05R HX  96

STATION/POSITION SKY/WX   TEMP    WIND        PRES    WAVE   SWELL
                          AIR SEA DIR/SP/G            HT/PER HT/PER
                          (F)     (DEG/KT/KT) (MB)    (FT/S) (FT/S)
VENICE                     78 89   20/ 10/ 13 1018.4R
NAPLES                     80      80/  4/  5 1018.5R
DRY TORTUGAS               86     120/  6/  6 1017.4R
NW FL BAY                  88     130/  8/ 10 1017.3F
SAND KEY                   86     100/  9/ 11 1017.4R
SOMBRERO KEY               86     100/ 11/ 12 1018.2R
LONG KEY                   86 91  120/  9/ 10 1018.0F
MOLASSES REEF              85 88   70/ 10/ 11 1017.8S

$$
FLZ067-068-071>074-168-172>174-220100-
SOUTHEAST FLORIDA

CITY           SKY/WX    TMP DP  RH WIND       PRES   REMARKS
W PALM BEACH   PTCLDY    86  75  69 SE8       30.05S HX  95
FT LAUDER-EXEC CLEAR     86  77  74 E7        30.05F HX  97
FT LAUDERDALE  PTCLDY    87  75  67 SE9       30.04F HX  96
POMPANO BEACH  PTCLDY    87  75  67 SE7       30.05F HX  96
PEMBROKE PINES CLEAR     85  75  72 E7        30.06F
OPA LOCKA      CLEAR     85  73  67 E7        30.06S
MIAMI          PTCLDY    86  73  65 SE9       30.05F
WEST KENDALL   CLEAR     85  74  69 E8        30.05S
HOMESTEAD      CLEAR     85  76  73 E5        30.05S

STATION/POSITION SKY/WX   TEMP    WIND        PRES    WAVE   SWELL
                          AIR SEA DIR/SP/G            HT/PER HT/PER
                          (F)     (DEG/KT/KT) (MB)    (FT/S) (FT/S)
PORT EVERGLADES            86     110/  4/  6 1017.4
VIRGINIA KEY               85 90  100/  8/ 10   N/A
LAKE WORTH                 85 88  130/  7/  8 1017.6S
FOWEY ROCKS                85 88   90/  9/ 10 1018.0F
SETTLEMENT POINT           85     140/  4/  4 1018.9F

$$




USA.gov is the U.S. government's official web portal to all federal, state and local government web resources and services.